Location: Artiguedieu
(43.5000°N, 0.5454°E)
Time: 10:31:38
(UTC+00:00)

KAITUO 1B - Visible Passes

Search period start: 27 September 2021 00:00
Search period end: 07 October 2021 00:00
Orbit: 489 x 510 km, 97.4° (Epoch: 26 September)

Date Brightness Start Highest point End Pass type
(mag) Time Alt. Az. Time Alt. Az. Time Alt. Az.
28 Sep ? 05:23:07 10° ENE 05:24:28 12° E 05:25:47 10° ESE visible
29 Sep ? 18:50:02 10° WSW 18:51:31 12° W 18:53:00 10° WNW visible
30 Sep ? 18:28:49 10° SW 18:31:37 20° W 18:34:24 10° NW visible
01 Oct ? 18:08:23 10° SSW 18:11:45 34° W 18:15:08 10° NNW visible
03 Oct ? 05:19:09 10° E 05:19:21 10° E 05:19:33 10° E visible
04 Oct ? 18:44:27 10° SW 18:46:23 14° W 18:48:20 10° WNW visible
05 Oct ? 18:23:30 10° SSW 18:26:28 23° W 18:29:27 10° NW visible
06 Oct ? 18:03:08 10° S 18:06:35 40° W 18:10:03 10° NNW visible
